Location: B?jaj?g
(11.7167°N, 92.6667°E)
Time: 14:55:52
(UTC+00:00)

Cosmos 1891 Rocket - Pass Details

Date: 18 September 2020
Orbit: 934 x 1018 km, 82.9° (Epoch: 27 October)

Event Time Altitude Azimuth Distance (km) Brightness Sun altitude
Rises 13:00:15 0° 184° (S) 3,702 7.5 -18.5°
Reaches altitude 10° 13:02:47 10° 184° (S) 2,742 6.8 -19.1°
Maximum altitude 13:09:05 87° 272° (W) 977 4.5 -20.6°
Drops below altitude 10° 13:15:14 10° 3° (N) 2,683 6.8 -22.1°
Sets 13:17:42 0° 3° (N) 3,618 7.5 -22.7°
